RZO305 LPPR-LPPD

Flight info

Callsign RZO305
Flight time N/A
Altitude 35000
Route ASMOV DCT SOPOP DCT ERPES/M079F340 DCT LENSI DCT BEKUN DCT OMOBI
Aircraft A21N/M-SDE2E3FGHIRWXY/LB1

Departure

Time N/A
Airport Francisco de Sá Carneiro Airport (LPPR)

Arrival

Time 2026-05-07 21:18
Airport João Paulo II Airport (LPPD)
Time Latitude Longitude Altitude Speed Heading
2026-05-07 20:14 39.46034 -17.84727 36930 ft 434 kts 252°
2026-05-07 20:14 39.44490 -17.92313 36931 ft 433 kts 252°
2026-05-07 20:15 39.42951 -17.99845 36930 ft 432 kts 251°
2026-05-07 20:15 39.41413 -18.07339 36930 ft 433 kts 252°
2026-05-07 20:16 39.39863 -18.14861 36930 ft 433 kts 252°
2026-05-07 20:16 39.38307 -18.22391 36932 ft 434 kts 252°
2026-05-07 20:17 39.36750 -18.29907 36931 ft 434 kts 252°
2026-05-07 20:17 39.35185 -18.37433 36929 ft 433 kts 252°
2026-05-07 20:18 39.33619 -18.44932 36928 ft 431 kts 252°
2026-05-07 20:18 39.32048 -18.52422 36932 ft 431 kts 252°
2026-05-07 20:19 39.30474 -18.59908 36938 ft 430 kts 252°
2026-05-07 20:19 39.28899 -18.67374 36941 ft 431 kts 252°
2026-05-07 20:20 39.27323 -18.74822 36933 ft 431 kts 253°
2026-05-07 20:20 39.25743 -18.82259 36931 ft 431 kts 253°
2026-05-07 20:21 39.24158 -18.89694 36930 ft 430 kts 253°
2026-05-07 20:21 39.22568 -18.97119 36930 ft 429 kts 253°
2026-05-07 20:22 39.20970 -19.04560 36931 ft 429 kts 253°
2026-05-07 20:22 39.19370 -19.11986 36931 ft 430 kts 253°
2026-05-07 20:23 39.17768 -19.19406 36933 ft 430 kts 253°
2026-05-07 20:23 39.16160 -19.26812 36931 ft 431 kts 253°
2026-05-07 20:24 39.14563 -19.34152 36930 ft 429 kts 253°
2026-05-07 20:24 39.12947 -19.41555 36930 ft 428 kts 253°
2026-05-07 20:25 39.11329 -19.48946 36930 ft 427 kts 253°
2026-05-07 20:25 39.09703 -19.56342 36930 ft 428 kts 253°
2026-05-07 20:26 39.08076 -19.63714 36931 ft 429 kts 253°
2026-05-07 20:26 39.06444 -19.71090 36930 ft 428 kts 253°
2026-05-07 20:27 39.04814 -19.78436 36931 ft 429 kts 253°
2026-05-07 20:27 39.03181 -19.85778 36928 ft 428 kts 253°
2026-05-07 20:28 39.01539 -19.93120 36930 ft 427 kts 253°
2026-05-07 20:28 38.99859 -20.00387 36929 ft 426 kts 250°
2026-05-07 20:29 38.97714 -20.07472 36930 ft 425 kts 249°
2026-05-07 20:29 38.95533 -20.14518 36931 ft 424 kts 249°
2026-05-07 20:30 38.93360 -20.21556 36930 ft 423 kts 249°
2026-05-07 20:30 38.91185 -20.28583 36929 ft 423 kts 249°
2026-05-07 20:31 38.89005 -20.35604 36929 ft 422 kts 249°
2026-05-07 20:31 38.86821 -20.42623 36930 ft 422 kts 249°
2026-05-07 20:32 38.84636 -20.49620 36929 ft 421 kts 249°
2026-05-07 20:32 38.82452 -20.56601 36922 ft 422 kts 249°
2026-05-07 20:33 38.80263 -20.63575 36925 ft 421 kts 249°
2026-05-07 20:33 38.78069 -20.70558 36914 ft 422 kts 249°
2026-05-07 20:34 38.75870 -20.77540 36928 ft 421 kts 249°
2026-05-07 20:34 38.73670 -20.84502 36922 ft 421 kts 249°
2026-05-07 20:35 38.71483 -20.91400 36915 ft 420 kts 249°
2026-05-07 20:35 38.69283 -20.98338 36909 ft 421 kts 249°
2026-05-07 20:36 38.67075 -21.05280 36911 ft 420 kts 249°
2026-05-07 20:36 38.64869 -21.12200 36916 ft 419 kts 249°
2026-05-07 20:37 38.62660 -21.19103 36910 ft 419 kts 249°
2026-05-07 20:37 38.60454 -21.25985 36918 ft 418 kts 249°
2026-05-07 20:38 38.58244 -21.32860 36907 ft 418 kts 249°
2026-05-07 20:38 38.56051 -21.39673 36909 ft 418 kts 249°
2026-05-07 20:39 38.53841 -21.46514 36903 ft 416 kts 249°
2026-05-07 20:39 38.51634 -21.53331 36891 ft 415 kts 249°
2026-05-07 20:40 38.49427 -21.60139 36891 ft 414 kts 249°
2026-05-07 20:40 38.47222 -21.66918 36893 ft 413 kts 249°
2026-05-07 20:41 38.45014 -21.73696 36893 ft 412 kts 249°
2026-05-07 20:41 38.42812 -21.80437 36895 ft 412 kts 249°
2026-05-07 20:42 38.40606 -21.87165 36892 ft 410 kts 249°
2026-05-07 20:42 38.38403 -21.93874 36889 ft 410 kts 249°
2026-05-07 20:43 38.36195 -22.00583 36891 ft 411 kts 249°
2026-05-07 20:43 38.33988 -22.07272 36891 ft 410 kts 249°
2026-05-07 20:44 38.31780 -22.13956 36935 ft 408 kts 249°
2026-05-07 20:44 38.30681 -22.17274 37206 ft 404 kts 249°
2026-05-07 20:44 38.29595 -22.20544 37538 ft 398 kts 249°
2026-05-07 20:44 38.28516 -22.23790 37640 ft 400 kts 249°
2026-05-07 20:45 38.27437 -22.27038 37485 ft 407 kts 249°
2026-05-07 20:45 38.26327 -22.30376 37272 ft 411 kts 249°
2026-05-07 20:45 38.25210 -22.33718 37037 ft 411 kts 249°
2026-05-07 20:45 38.24093 -22.37063 36870 ft 410 kts 249°
2026-05-07 20:46 38.22976 -22.40405 36853 ft 411 kts 249°
2026-05-07 20:46 38.20742 -22.47092 36872 ft 411 kts 249°
2026-05-07 20:47 38.18501 -22.53785 36880 ft 412 kts 249°
2026-05-07 20:47 38.16250 -22.60484 36881 ft 412 kts 249°
2026-05-07 20:48 38.13993 -22.67184 36880 ft 412 kts 249°
2026-05-07 20:48 38.11723 -22.73906 36879 ft 414 kts 249°
2026-05-07 20:49 38.09448 -22.80629 36881 ft 415 kts 249°
2026-05-07 20:49 38.07167 -22.87351 36880 ft 415 kts 249°
2026-05-07 20:50 38.04875 -22.94093 36877 ft 415 kts 249°
2026-05-07 20:50 38.02586 -23.00810 36873 ft 415 kts 249°
2026-05-07 20:51 38.00292 -23.07529 36871 ft 415 kts 249°
2026-05-07 20:51 37.97998 -23.14225 36872 ft 409 kts 250°
2026-05-07 20:52 37.95784 -23.20729 36866 ft 399 kts 252°
2026-05-07 20:52 37.94636 -23.27537 36872 ft 397 kts 269°
2026-05-07 20:53 37.94449 -23.34571 36741 ft 397 kts 270°
2026-05-07 20:53 37.94360 -23.38043 36173 ft 393 kts 269°
2026-05-07 20:53 37.94262 -23.41503 35494 ft 393 kts 269°
2026-05-07 20:53 37.94158 -23.44964 34804 ft 393 kts 269°
2026-05-07 20:54 37.94087 -23.47252 34348 ft 393 kts 269°
2026-05-07 20:54 37.93978 -23.50714 33682 ft 394 kts 269°
2026-05-07 20:54 37.93867 -23.54189 33028 ft 394 kts 269°
2026-05-07 20:54 37.93754 -23.57659 32389 ft 394 kts 269°
2026-05-07 20:55 37.93639 -23.61123 31733 ft 394 kts 269°
2026-05-07 20:55 37.93523 -23.64595 31074 ft 394 kts 269°
2026-05-07 20:55 37.93406 -23.68064 30394 ft 394 kts 269°
2026-05-07 20:55 37.93288 -23.71542 29679 ft 395 kts 269°
2026-05-07 20:56 37.93169 -23.75023 28930 ft 396 kts 269°
2026-05-07 20:56 37.93050 -23.78511 28179 ft 397 kts 268°
2026-05-07 20:56 37.92930 -23.81962 27439 ft 398 kts 268°
2026-05-07 20:56 37.92807 -23.85461 26663 ft 399 kts 268°
2026-05-07 20:57 37.92683 -23.88975 25868 ft 400 kts 268°
2026-05-07 20:57 37.92556 -23.92508 25041 ft 402 kts 268°
2026-05-07 20:57 37.92429 -23.96043 24277 ft 402 kts 268°
2026-05-07 20:57 37.92302 -23.99569 23568 ft 401 kts 268°
2026-05-07 20:58 37.92173 -24.03099 22944 ft 401 kts 268°
2026-05-07 20:58 37.92043 -24.06615 22322 ft 398 kts 268°
2026-05-07 20:58 37.91913 -24.10119 21931 ft 405 kts 268°
2026-05-07 20:58 37.91778 -24.13739 21613 ft 409 kts 268°
2026-05-07 20:59 37.91643 -24.17290 21296 ft 398 kts 268°
2026-05-07 20:59 37.91512 -24.20760 20878 ft 390 kts 268°
2026-05-07 20:59 37.91381 -24.24187 20353 ft 389 kts 268°
2026-05-07 20:59 37.91249 -24.27607 19806 ft 387 kts 268°
2026-05-07 21:00 37.91117 -24.30996 19268 ft 385 kts 268°
2026-05-07 21:00 37.90985 -24.34368 18729 ft 382 kts 268°
2026-05-07 21:00 37.90852 -24.37720 18186 ft 380 kts 268°
2026-05-07 21:00 37.90720 -24.41056 17582 ft 378 kts 268°
2026-05-07 21:01 37.90588 -24.44352 17024 ft 374 kts 268°
2026-05-07 21:01 37.90456 -24.47629 16522 ft 371 kts 268°
2026-05-07 21:01 37.90325 -24.50883 16046 ft 369 kts 268°
2026-05-07 21:01 37.90193 -24.54119 15571 ft 366 kts 268°
2026-05-07 21:02 37.90062 -24.57323 15099 ft 363 kts 268°
2026-05-07 21:02 37.89930 -24.60503 14654 ft 361 kts 268°
2026-05-07 21:02 37.89797 -24.63668 14279 ft 359 kts 268°
2026-05-07 21:02 37.89665 -24.66820 13912 ft 357 kts 268°
2026-05-07 21:03 37.89532 -24.69954 13559 ft 356 kts 268°
2026-05-07 21:03 37.89399 -24.73069 13132 ft 353 kts 268°
2026-05-07 21:03 37.89265 -24.76158 12638 ft 351 kts 268°
2026-05-07 21:03 37.88924 -24.79215 12196 ft 352 kts 258°
2026-05-07 21:04 37.88046 -24.82082 11801 ft 347 kts 245°
2026-05-07 21:04 37.86675 -24.84551 11562 ft 338 kts 233°
2026-05-07 21:04 37.85119 -24.86659 11381 ft 326 kts 231°
2026-05-07 21:04 37.83581 -24.88682 11222 ft 312 kts 231°
2026-05-07 21:05 37.82112 -24.90631 11081 ft 300 kts 232°
2026-05-07 21:05 37.80707 -24.92509 10942 ft 288 kts 232°
2026-05-07 21:05 37.79357 -24.94319 10697 ft 281 kts 232°
2026-05-07 21:05 37.78021 -24.96113 10279 ft 280 kts 232°
2026-05-07 21:06 37.76698 -24.97894 9953 ft 276 kts 232°
2026-05-07 21:06 37.75380 -24.99665 9627 ft 276 kts 233°
2026-05-07 21:06 37.74064 -25.01436 9306 ft 276 kts 233°
2026-05-07 21:06 37.72748 -25.03200 8994 ft 276 kts 232°
2026-05-07 21:07 37.71429 -25.04965 8686 ft 276 kts 233°
2026-05-07 21:07 37.70116 -25.06724 8380 ft 275 kts 233°
2026-05-07 21:07 37.68803 -25.08480 8080 ft 275 kts 232°
2026-05-07 21:07 37.67495 -25.10229 7775 ft 273 kts 232°
2026-05-07 21:08 37.66192 -25.11971 7489 ft 272 kts 232°
2026-05-07 21:08 37.64897 -25.13699 7217 ft 269 kts 232°
2026-05-07 21:08 37.63607 -25.15436 6926 ft 273 kts 233°
2026-05-07 21:08 37.62319 -25.17165 6605 ft 266 kts 233°
2026-05-07 21:09 37.61048 -25.18862 6308 ft 266 kts 233°
2026-05-07 21:09 37.59938 -25.20682 5989 ft 258 kts 249°
2026-05-07 21:09 37.59494 -25.22787 5665 ft 243 kts 275°
2026-05-07 21:09 37.59780 -25.24837 5365 ft 236 kts 294°
2026-05-07 21:10 37.60409 -25.26742 5124 ft 240 kts 296°
2026-05-07 21:10 37.61060 -25.28641 4870 ft 239 kts 296°
2026-05-07 21:10 37.61706 -25.30572 4576 ft 239 kts 296°
2026-05-07 21:10 37.62338 -25.32493 4267 ft 235 kts 295°
2026-05-07 21:11 37.62959 -25.34409 4026 ft 237 kts 295°
2026-05-07 21:11 37.63587 -25.36323 3983 ft 238 kts 296°
2026-05-07 21:11 37.64796 -25.39942 3973 ft 210 kts 295°
2026-05-07 21:12 37.65323 -25.41606 3974 ft 197 kts 296°
2026-05-07 21:12 37.65816 -25.43159 3972 ft 186 kts 296°
2026-05-07 21:12 37.66296 -25.44683 3972 ft 187 kts 295°
2026-05-07 21:12 37.66778 -25.46207 3650 ft 192 kts 295°
2026-05-07 21:13 37.67321 -25.47836 3047 ft 203 kts 296°
2026-05-07 21:13 37.67847 -25.49422 2972 ft 188 kts 295°
2026-05-07 21:13 37.68276 -25.50914 2978 ft 169 kts 293°
2026-05-07 21:13 37.68637 -25.52221 2976 ft 149 kts 295°
2026-05-07 21:14 37.69018 -25.53375 2798 ft 134 kts 298°
2026-05-07 21:14 37.69358 -25.54419 2635 ft 127 kts 297°
2026-05-07 21:14 37.69690 -25.55460 2458 ft 127 kts 297°
2026-05-07 21:14 37.70020 -25.56504 2263 ft 129 kts 296°
2026-05-07 21:15 37.70352 -25.57561 2081 ft 129 kts 296°
2026-05-07 21:15 37.70686 -25.58620 1901 ft 131 kts 296°
2026-05-07 21:15 37.71021 -25.59685 1723 ft 131 kts 296°
2026-05-07 21:15 37.71357 -25.60753 1541 ft 131 kts 296°
2026-05-07 21:16 37.71694 -25.61822 1366 ft 131 kts 296°
2026-05-07 21:16 37.72034 -25.62906 1191 ft 133 kts 295°
2026-05-07 21:16 37.72375 -25.63989 1015 ft 132 kts 295°
2026-05-07 21:16 37.72716 -25.65070 838 ft 132 kts 295°
2026-05-07 21:17 37.73059 -25.66151 659 ft 132 kts 295°
2026-05-07 21:17 37.73393 -25.67231 474 ft 132 kts 293°
2026-05-07 21:17 37.73732 -25.68312 302 ft 133 kts 294°
2026-05-07 21:17 37.74075 -25.69382 221 ft 124 kts 292°
2026-05-07 21:18 37.74298 -25.70080 246 ft 44 kts 290°
2026-05-07 21:18 37.74365 -25.70293 255 ft 24 kts 291°
2026-05-07 21:18 37.74431 -25.70503 265 ft 27 kts 291°
2026-05-07 21:18 37.74503 -25.70730 272 ft 29 kts 292°
2026-05-07 21:19 37.74520 -25.70783 274 ft 7 kts 292°
2026-05-07 21:19 37.74551 -25.70838 275 ft 10 kts 330°
2026-05-07 21:19 37.74627 -25.70835 277 ft 12 kts 11°
2026-05-07 21:19 37.74711 -25.70846 277 ft 13 kts 312°
2026-05-07 21:20 37.74741 -25.70930 277 ft 6 kts 294°
2026-05-07 21:20 37.74777 -25.70961 277 ft 8 kts
2026-05-07 21:20 37.74784 -25.70958 277 ft 0 kts 14°
2026-05-07 21:20 37.74798 -25.70955 277 ft 4 kts 11°
2026-05-07 21:21 37.74825 -25.70940 277 ft 3 kts 22°
2026-05-07 21:21 37.74828 -25.70939 277 ft 0 kts 22°